Theta_e
314 312 312 309 308 305 307 307 307 308 308 309 309 308 308 312 312 310 310 310 310 313 314 313 313 312 312 312 308 307 312 312 312 312 312 312 314 314 313 313 313 314 314 315 332
316 312 311 309 306 303 306 307 307 307 308 310 311 310 309 314 313 311 310 310 313 314 314 314 314 313 312 312 310 311 312 311 310 311 312 313 314 314 312 313 313 314 314 313 323
314 307 306 305 303 303 306 306 307 307 308 310 310 309 311 317 314 312 311 313 313 314 314 313 311 312 314 313 313 312 313 312 313 311 312 314 314 314 313 313 314 314 314 314 318
314 309 307 306 305 306 306 307 307 307 308 310 311 309 315 316 318 314 312 313 313 314 313 313 314 314 314 314 313 314 313 312 313 314 314 314 314 314 314 314 315 313 313 313 314
313 314 306 307 307 307 307 308 309 309 309 310 313 310 314 315 316 316 312 313 313 313 314 314 315 314 316 314 314 314 313 314 315 315 315 314 313 313 314 314 315 314 313 313 314
313 313 309 307 308 308 309 309 310 310 310 311 314 311 312 314 313 314 313 313 313 313 314 313 314 314 314 315 315 314 314 315 314 315 314 313 314 311 313 314 314 313 315 315 314
313 313 313 305 308 308 309 309 310 312 312 312 315 314 314 315 314 314 315 314 313 313 314 313 313 314 315 316 314 315 316 315 314 314 315 312 315 313 315 315 316 315 317 315 315
314 313 313 305 307 309 310 312 312 312 313 313 316 316 316 314 316 316 315 315 315 314 313 313 312 314 315 314 315 316 315 316 315 315 315 315 317 316 316 316 317 318 317 317 318
314 313 312 305 307 310 311 312 313 313 314 316 316 316 316 315 315 314 314 315 314 312 312 312 313 314 314 316 316 316 317 317 316 315 315 316 316 316 316 317 317 318 318 317 318
314 313 308 306 309 312 311 312 314 315 314 313 314 313 313 314 314 313 312 313 314 314 315 313 314 315 315 316 318 317 317 317 317 316 316 316 317 316 316 316 317 317 317 317 318
314 313 306 306 312 311 312 310 313 314 312 314 313 313 313 313 313 313 312 313 313 314 314 313 314 315 314 314 314 315 316 316 316 316 316 317 317 316 316 316 316 317 317 317 318
313 313 309 308 310 310 311 313 312 312 316 312 312 313 313 313 314 313 312 312 313 313 312 312 312 312 313 313 314 315 317 317 315 315 316 316 317 317 317 317 317 317 317 317 317
313 313 309 310 311 310 311 311 311 311 316 314 314 314 313 312 313 313 313 312 312 312 312 314 313 313 313 314 315 315 318 319 317 317 317 318 320 318 318 318 318 318 318 317 317
312 314 310 310 310 310 309 310 311 311 314 312 311 312 312 311 313 312 312 312 312 312 314 316 314 314 313 315 315 318 317 319 319 319 320 319 325 319 318 318 317 318 318 317 317
311 315 313 312 310 310 310 312 311 313 319 313 310 310 311 313 312 312 312 312 312 312 315 312 313 313 315 314 314 318 318 316 316 318 318 318 321 317 316 317 317 317 318 317 317
310 315 316 315 312 312 313 312 314 318 318 314 312 314 315 314 312 312 313 312 311 315 316 315 314 314 314 314 316 317 315 316 316 317 320 318 318 317 316 317 318 318 317 317 317
308 316 315 314 314 314 313 314 319 317 314 316 315 317 315 314 312 312 313 313 313 318 314 314 314 313 313 314 313 315 317 322 322 321 321 318 318 318 317 317 317 318 318 317 317
308 316 315 313 312 312 310 316 317 314 317 316 318 317 316 312 314 312 313 314 311 313 318 317 316 313 313 312 315 316 316 321 324 321 319 315 318 315 315 315 316 316 316 316 317
311 315 314 313 312 312 317 319 317 317 317 321 319 316 314 314 313 313 315 313 312 316 317 317 314 312 312 313 314 318 321 317 322 320 320 316 315 315 315 316 316 317 316 317 317
312 313 314 313 314 313 318 317 317 314 318 320 321 315 316 318 315 316 315 313 313 315 315 316 319 312 313 313 315 316 316 323 322 323 321 316 316 316 315 315 315 316 318 318 318
312 317 314 313 314 317 320 319 318 317 318 320 320 318 316 317 315 317 316 314 312 312 316 316 318 314 313 315 316 317 321 319 320 322 322 319 315 315 315 316 316 315 317 317 317
309 316 313 313 317 314 318 316 315 319 318 318 316 316 318 318 316 315 316 313 313 313 315 314 318 317 314 313 315 316 318 318 322 321 321 320 319 315 315 316 316 315 314 314 315
313 313 313 312 315 315 315 314 316 318 318 318 319 318 317 317 319 315 316 313 314 313 316 314 317 318 315 314 315 317 314 314 317 318 318 321 319 314 315 315 316 315 313 313 312
313 316 314 312 312 314 316 314 314 315 315 316 315 315 317 318 316 317 316 314 312 313 315 316 317 317 318 316 316 317 317 315 315 318 318 318 318 315 315 314 314 314 313 313 313
311 314 312 314 312 314 314 314 315 316 313 311 314 314 314 314 313 314 313 315 314 314 315 317 320 316 316 314 313 315 316 315 315 316 318 316 316 315 315 315 314 314 313 312 311
313 312 311 311 311 314 313 314 314 314 312 311 312 313 312 312 313 314 315 315 315 313 314 313 316 315 315 313 313 314 315 315 315 315 317 318 317 314 313 311 310 310 309 309 309
307 307 309 309 311 312 313 313 311 310 310 311 310 310 310 311 313 313 314 315 315 314 314 312 316 315 316 313 314 316 315 315 315 313 314 315 313 310 311 310 309 308 308 308 308
Wind_Speed
21 17 15 12 10 8 8 10 12 13 15 14 14 14 14 8 8 10 8 4 7 11 13 6 8 5 4 4 4 1 2 3 2 3 1 7 9 6 8 9 10 7 11 7 3
23 20 17 14 10 7 7 8 10 12 14 14 14 12 10 4 6 11 5 5 7 11 11 12 7 6 4 3 3 2 1 2 1 4 5 8 8 11 6 8 9 13 12 10 4
28 23 20 17 11 8 8 9 10 11 12 13 14 9 6 3 2 5 4 5 8 10 8 6 3 3 5 3 3 1 2 1 7 4 3 11 13 5 9 8 8 12 10 7 7
34 24 18 15 13 10 10 10 11 11 12 12 14 8 5 2 4 2 2 4 7 8 9 7 7 3 2 4 0 4 4 4 5 13 12 14 11 12 15 15 13 11 11 13 11
36 27 16 12 11 10 10 10 11 12 10 10 11 7 3 5 4 1 1 2 3 5 3 3 6 2 5 2 3 3 3 7 13 16 14 15 17 18 16 18 15 14 13 14 14
38 31 17 10 9 9 10 12 13 12 7 7 8 4 2 10 1 2 4 5 5 4 2 1 3 2 1 3 3 3 11 16 12 12 8 8 12 4 12 12 9 9 11 13 16
39 34 19 9 7 9 11 14 13 7 5 5 6 4 2 4 1 3 6 7 7 4 4 1 1 3 2 6 1 7 10 12 5 4 11 3 9 8 9 9 14 12 12 11 11
41 35 21 8 6 9 13 13 8 4 5 3 5 3 3 1 4 8 9 9 10 12 9 7 3 3 3 3 4 7 4 11 10 13 6 8 21 10 14 5 11 16 12 11 16
42 34 21 8 7 10 13 7 7 6 7 5 3 3 3 4 3 10 10 7 4 2 2 1 0 2 2 7 11 5 14 20 21 6 14 11 20 15 14 18 17 14 15 13 14
43 32 17 9 8 10 13 6 5 4 5 3 3 1 2 5 6 11 9 5 2 6 0 1 1 6 6 8 16 23 23 22 24 21 21 24 26 23 22 17 17 17 15 14 13
43 28 16 9 8 10 11 2 3 2 5 3 3 1 4 8 7 11 8 3 2 1 4 3 6 14 19 12 14 16 20 25 26 22 25 24 26 25 21 21 19 18 16 16 15
42 26 17 7 8 10 13 5 2 1 4 1 2 4 5 3 2 8 9 8 4 6 8 9 13 11 6 14 16 16 20 26 24 18 17 22 29 27 21 25 23 23 22 19 17
41 22 17 6 5 7 10 5 10 4 1 3 2 2 3 1 1 3 5 6 8 9 12 10 13 11 12 19 19 14 16 18 19 19 17 20 31 23 21 19 19 21 21 20 20
38 19 15 6 3 7 2 7 11 7 1 3 1 1 2 1 2 3 1 3 8 10 7 7 4 10 17 19 11 13 6 10 17 16 13 9 17 18 20 20 17 17 17 17 18
35 16 12 11 4 1 7 15 5 3 2 5 1 1 4 4 7 4 0 2 11 15 4 6 11 19 19 11 9 12 11 16 17 18 17 19 11 10 10 15 18 15 13 12 14
33 12 12 9 4 5 14 3 2 1 2 2 2 8 11 8 3 3 4 1 3 4 6 14 13 10 9 13 12 9 14 21 14 8 8 18 16 12 8 8 9 3 4 2 6
30 9 13 11 7 13 6 1 2 2 3 2 5 9 10 4 4 5 13 12 6 5 11 18 3 6 6 12 14 8 13 6 3 3 6 3 9 14 20 20 14 13 12 5 2
26 2 15 21 12 8 1 2 2 3 3 6 6 15 5 8 7 9 7 11 2 3 6 9 15 7 3 20 16 21 8 5 6 5 12 12 9 5 9 12 13 13 8 1 4
18 3 11 24 11 9 2 2 1 1 3 7 12 3 2 4 7 7 10 7 3 5 5 10 12 23 20 13 3 2 6 2 6 12 8 6 9 16 8 7 3 8 6 5 7
10 4 11 22 8 3 3 1 2 2 6 4 5 2 6 11 5 10 5 4 3 5 4 6 18 8 7 17 8 12 1 4 4 5 6 6 11 11 17 13 2 5 8 8 7
6 1 17 19 4 5 3 2 4 5 4 3 5 8 6 6 7 8 6 10 4 8 2 10 4 12 17 8 16 6 3 5 4 5 6 11 8 6 14 12 8 10 5 6 7
5 2 19 16 4 2 2 6 5 5 4 5 4 5 2 10 5 6 6 4 10 5 11 3 4 12 21 22 12 15 15 10 6 7 8 9 13 17 18 15 7 5 5 7 8
3 3 12 10 4 3 4 4 4 5 8 5 5 4 6 3 6 5 14 4 15 11 6 7 3 9 10 3 2 9 11 14 14 13 23 15 14 3 9 12 12 11 13 12 11
3 4 4 4 2 2 3 3 6 6 6 4 10 6 7 6 8 11 23 9 6 14 25 14 6 13 12 22 21 21 26 24 17 9 18 20 30 24 25 27 26 26 22 20 19
4 2 1 4 2 4 2 2 5 5 6 12 3 6 11 8 22 17 8 22 19 18 3 4 9 16 19 22 24 28 29 29 21 23 18 27 29 27 26 24 20 20 23 24 24
3 4 4 5 4 4 1 2 5 4 8 13 16 12 18 18 17 25 20 20 11 8 6 6 7 15 21 22 23 28 24 18 18 19 19 26 27 25 19 16 19 24 27 27 26
5 2 1 2 3 4 2 0 7 15 8 5 15 22 17 17 14 22 25 25 22 22 16 6 4 8 19 19 25 14 6 4 9 14 15 18 27 23 25 24 23 22 24 24 23
Wind_Direction
5 1 356 349 348 357 7 10 11 17 14 10 4 359 9 31 61 53 50 36 26 24 37 57 48 71 65 76 60 137 175 184 201 200 273 336 331 317 300 260 274 251 289 317 293
6 3 359 353 351 359 6 6 4 6 6 5 357 356 4 43 71 55 48 60 43 34 42 34 28 33 63 37 41 29 263 186 269 308 295 314 309 315 302 287 267 268 268 265 260
11 9 12 14 17 19 11 4 360 357 357 359 358 4 17 92 94 35 42 44 34 31 41 39 25 47 70 40 29 78 281 239 286 235 265 301 290 293 284 276 287 293 278 282 262
15 11 14 22 28 23 11 6 359 357 355 359 6 17 53 56 78 7 19 30 28 30 41 30 24 59 82 34 179 281 301 270 281 295 288 281 286 274 271 272 278 285 277 291 263
13 10 9 16 20 15 7 0 352 350 353 2 9 23 34 75 88 23 273 311 349 7 32 43 44 72 6 333 299 208 287 277 282 279 283 271 261 258 268 269 268 268 269 262 261
8 7 4 6 10 3 358 352 343 343 349 3 9 42 68 93 259 264 266 286 302 323 315 318 3 350 259 295 281 271 292 290 287 282 263 278 290 248 246 268 297 287 285 269 265
6 3 2 359 359 349 345 342 340 354 14 12 12 50 87 82 216 295 295 277 277 272 305 352 0 301 325 282 240 292 299 311 224 290 313 258 269 239 269 287 293 279 287 278 271
5 1 1 359 360 347 343 349 12 63 32 34 35 57 92 280 312 314 307 284 273 262 255 287 249 244 232 300 259 301 274 307 302 302 271 307 284 263 291 276 281 289 286 288 294
4 1 2 14 15 356 349 27 62 84 27 46 41 18 59 343 348 339 311 303 311 287 293 137 75 306 239 276 286 271 290 298 302 282 296 271 292 285 278 282 282 275 285 283 288
5 3 11 25 21 9 359 74 71 23 12 22 33 224 52 350 330 352 347 324 322 326 144 83 61 276 255 265 289 300 294 290 285 294 285 282 280 282 277 269 266 270 271 272 273
4 7 14 23 38 30 9 44 2 58 40 14 318 300 317 334 58 11 359 335 16 60 341 359 276 275 303 325 300 295 290 285 284 285 287 282 279 278 279 273 266 267 262 260 258
3 7 11 31 64 55 49 69 59 326 319 26 295 276 265 297 319 11 18 4 339 316 317 300 283 316 292 316 303 293 291 284 284 288 280 284 276 278 276 271 268 264 261 251 252
4 7 18 59 48 41 62 84 359 164 333 316 245 308 350 192 259 284 353 352 334 315 322 284 282 313 311 314 304 303 289 294 296 307 281 279 276 276 273 263 263 257 249 249 241
4 6 12 8 44 3 65 337 334 173 56 358 227 124 323 358 222 246 291 338 335 318 320 287 287 293 307 303 292 294 302 298 302 306 298 335 287 290 286 276 262 252 243 238 231
4 10 12 23 341 30 319 328 140 177 273 351 321 2 341 357 300 229 241 261 310 307 219 293 300 306 307 293 309 289 302 307 299 283 291 262 263 278 287 277 272 268 258 238 239
1 20 31 2 345 337 334 105 127 206 247 12 302 336 332 327 270 295 314 331 305 266 240 274 291 290 277 308 294 293 306 304 289 277 257 277 244 287 293 280 302 325 26 286 239
358 27 31 18 330 317 345 113 301 222 2 334 332 322 324 294 304 308 323 319 316 313 315 322 296 279 283 306 310 278 322 302 256 218 264 330 308 259 279 279 279 293 323 337 295
352 46 26 9 1 1 86 54 253 37 316 337 316 310 287 4 330 325 306 319 257 231 305 330 323 346 248 308 293 288 266 272 297 289 301 294 263 266 278 295 291 296 296 96 27
353 51 20 1 356 350 51 52 339 296 339 316 308 264 259 339 319 330 317 293 255 186 338 321 295 310 295 295 277 313 219 295 271 257 268 241 267 286 309 281 333 36 51 75 51
350 0 16 355 351 28 64 324 295 313 349 302 284 249 289 329 315 339 309 246 256 201 227 305 303 314 321 304 292 241 123 258 209 274 259 259 273 275 289 284 19 42 68 56 36
12 37 354 359 36 50 63 304 290 308 319 275 279 287 292 336 311 306 268 288 247 337 229 309 231 291 309 283 302 272 230 232 275 239 277 281 271 267 276 276 302 344 85 350 338
354 49 353 359 52 42 39 322 313 314 339 299 285 284 320 324 296 283 256 271 313 339 319 325 277 287 289 287 300 258 263 259 255 263 248 280 271 268 269 276 300 328 339 340 316
15 309 355 8 68 20 332 305 286 315 338 332 320 358 320 299 321 255 292 311 303 297 324 326 255 296 294 239 162 259 281 289 271 266 265 273 259 299 275 296 268 284 295 297 297
353 357 7 44 64 70 352 305 316 302 305 350 310 306 333 287 292 286 297 303 334 309 302 294 221 251 273 282 295 290 285 288 272 261 279 266 280 279 272 273 277 279 291 291 287
11 52 42 326 4 338 191 263 293 337 347 318 283 290 340 305 308 279 303 300 296 301 305 276 260 269 271 282 288 280 281 287 277 268 264 276 279 283 283 284 284 284 286 284 281
13 1 352 301 300 297 253 205 293 332 320 300 282 321 322 299 279 294 299 290 293 295 288 270 276 295 288 289 288 291 287 282 275 278 273 271 274 277 291 296 278 278 283 275 273
16 341 286 288 306 300 254 121 306 316 287 308 315 311 294 289 298 289 283 281 271 274 283 265 263 300 294 314 310 288 255 223 268 264 266 277 286 302 289 288 285 283 269 266 266